Weather History for St-Etienne Boutheon, France

Change the Weather History Date:

Sunday, October 27, 2013

  Actual Average Record
Temperature  
Mean Temperature 63 °F -  
Max Temperature 69 °F 50 °F 75 °F (2006)
Min Temperature 57 °F 38 °F 30 °F (1997)
Degree Days  
Heating Degree Days 2    
Growing Degree Days 13 (Base 50)    
Moisture  
Dew Point 51 °F    
Average Humidity 64    
Maximum Humidity 94    
Minimum Humidity 43    
Precipitation  
Precipitation 0.00 in - - ()
Sea Level Pressure  
Sea Level Pressure 30.08 in    
Wind  
Wind Speed 8 mph ()    
Max Wind Speed 20 mph    
Max Gust Speed 28 mph    
Visibility 6.1 miles    
Events Rain , Thunderstorm    
Averages and records for this station are not official NWS values.
T = Trace of Precipitation, MM = Missing Value Source: Averaged Metar Reports

Daily Weather History Graph

Daily Weather History Graph

Search for Another Location

Airport:

Trip Planner

Search our weather history database for the weather conditions in past years. The results will help you decide how hot, cold, wet, or windy it might be!

Date:

Astronomy

Oct. 27, 2013 Rise Set
Actual Time 7:15 AM CET 5:37 PM CET
Civil Twilight 6:44 AM CET 6:07 PM CET
Nautical Twilight 6:10 AM CET 6:42 PM CET
Astronomical Twilight 5:35 AM CET 7:16 PM CET
Moon No Moon Rise 1:56 PM CET (10/27)
Length of Visible Light 11h 22m
Length of Day
10h 21m
Last Quarter, 45% of the Moon is Illuminated
Oct 27
Last Quarter
Nov 3
New
Nov 10
First Quarter
Nov 17
Full
Nov 25
Last Quarter

Hourly Weather History & Observations

Time (CET) Temp. Dew Point Humidity Pressure Visibility Wind Dir Wind Speed Gust Speed Precip Events Conditions
12:00 AM 60.8 °F 55.4 °F 82% 30.06 in 6.2 mi SE 3.5 mph - N/A   Overcast
12:30 AM 60.8 °F 55.4 °F 82% 30.06 in 6.2 mi East 2.3 mph - N/A   Overcast
1:00 AM 62.6 °F 55.4 °F 77% 30.06 in 6.2 mi ESE 6.9 mph - N/A   Overcast
1:30 AM 62.6 °F 53.6 °F 72% 30.06 in 6.2 mi Variable 1.2 mph - N/A   Overcast
2:00 AM 62.6 °F 55.4 °F 77% 30.06 in 6.2 mi ESE 5.8 mph - N/A   Mostly Cloudy
2:30 AM 66.2 °F 55.4 °F 68% 30.06 in 6.2 mi SSE 5.8 mph - N/A   Unknown
2:00 AM 66.2 °F 55.4 °F 68% 30.04 in 6.2 mi SE 13.8 mph - N/A   Unknown
2:30 AM 68.0 °F 55.4 °F 64% 30.04 in 6.2 mi SSE 16.1 mph - N/A   Unknown
3:00 AM 64.4 °F 53.6 °F 68% 30.04 in 6.2 mi Variable 9.2 mph 21.9 mph N/A   Mostly Cloudy
3:30 AM 62.6 °F 53.6 °F 72% 30.06 in 6.2 mi NW 8.1 mph - N/A   Overcast
4:00 AM 60.8 °F 55.4 °F 82% 30.06 in 6.2 mi North 9.2 mph - N/A Thunderstorm Thunderstorm
4:30 AM 57.2 °F 55.4 °F 94% 30.06 in 2.2 mi ESE 4.6 mph - N/A Rain , Thunderstorm Heavy Thunderstorms and Rain
5:00 AM 57.2 °F 55.4 °F 94% 30.04 in 6.2 mi ESE 9.2 mph - N/A Rain , Thunderstorm Light Rain
5:30 AM 57.2 °F 55.4 °F 94% 30.04 in 6.2 mi ESE 10.4 mph - N/A   Mostly Cloudy
6:00 AM 59.0 °F 55.4 °F 88% 30.04 in 6.2 mi SE 10.4 mph - N/A   Scattered Clouds
6:30 AM 60.8 °F 57.2 °F 88% 30.04 in 6.2 mi SSE 9.2 mph - N/A   Mostly Cloudy
7:00 AM 60.8 °F 55.4 °F 82% 30.04 in 6.2 mi SSE 8.1 mph - N/A   Scattered Clouds
7:30 AM 60.8 °F 55.4 °F 82% 30.06 in 6.2 mi SSE 8.1 mph - N/A   Scattered Clouds
8:00 AM 60.8 °F 55.4 °F 82% 30.06 in 6.2 mi SSE 5.8 mph - N/A   Partly Cloudy
8:30 AM 62.6 °F 53.6 °F 72% 30.06 in 6.2 mi South 8.1 mph - N/A   Partly Cloudy
9:00 AM 64.4 °F 53.6 °F 68% 30.09 in 6.2 mi South 8.1 mph - N/A   Partly Cloudy
9:30 AM 66.2 °F 53.6 °F 64% 30.09 in 6.2 mi SSE 9.2 mph - N/A   Partly Cloudy
10:00 AM 66.2 °F 51.8 °F 60% 30.09 in 6.2 mi SSW 6.9 mph - N/A   Partly Cloudy
10:30 AM 66.2 °F 50.0 °F 56% 30.09 in 6.2 mi SSW 12.7 mph - N/A   Scattered Clouds
11:00 AM 69.8 °F 51.8 °F 53% 30.06 in 6.2 mi SSW 16.1 mph - N/A   Mostly Cloudy
11:30 AM 66.2 °F 50.0 °F 56% 30.06 in 6.2 mi SSW 19.6 mph - N/A   Mostly Cloudy
12:00 PM 68.0 °F 48.2 °F 49% 30.06 in 6.2 mi SW 13.8 mph - N/A   Mostly Cloudy
12:30 PM 68.0 °F 48.2 °F 49% 30.09 in 6.2 mi SSW 10.4 mph 27.6 mph N/A   Mostly Cloudy
1:00 PM 66.2 °F 48.2 °F 52% 30.09 in 6.2 mi SSW 10.4 mph - N/A   Mostly Cloudy
1:30 PM 68.0 °F 46.4 °F 46% 30.09 in 6.2 mi SW 15.0 mph - N/A   Scattered Clouds
2:00 PM 68.0 °F 44.6 °F 43% 30.09 in 6.2 mi SW 13.8 mph - N/A   Partly Cloudy
2:30 PM 69.8 °F 46.4 °F 43% 30.09 in 6.2 mi SW 13.8 mph - N/A   Partly Cloudy
3:00 PM 68.0 °F 46.4 °F 46% 30.09 in 6.2 mi SSW 12.7 mph - N/A   Partly Cloudy
3:30 PM 69.8 °F 46.4 °F 43% 30.09 in 6.2 mi SW 11.5 mph - N/A   Partly Cloudy
4:00 PM 68.0 °F 46.4 °F 46% 30.12 in 6.2 mi SSW 10.4 mph - N/A   Scattered Clouds
4:30 PM 68.0 °F 46.4 °F 46% 30.12 in 6.2 mi South 6.9 mph - N/A   Mostly Cloudy
5:00 PM 66.2 °F 46.4 °F 49% 30.12 in 6.2 mi SSW 8.1 mph - N/A   Mostly Cloudy
5:30 PM 64.4 °F 46.4 °F 52% 30.12 in 6.2 mi SSW 9.2 mph - N/A   Mostly Cloudy
6:00 PM 62.6 °F 46.4 °F 55% 30.12 in 6.2 mi SSW 6.9 mph - N/A   Mostly Cloudy
6:30 PM 62.6 °F 46.4 °F 55% 30.12 in 6.2 mi SW 4.6 mph - N/A   Unknown
7:00 PM 62.6 °F 46.4 °F 55% 30.12 in 6.2 mi South 5.8 mph - N/A   Mostly Cloudy
7:30 PM 62.6 °F 46.4 °F 55% 30.12 in 6.2 mi SSE 5.8 mph - N/A   Mostly Cloudy
8:00 PM 62.6 °F 46.4 °F 55% 30.09 in 6.2 mi South 11.5 mph - N/A   Unknown
8:30 PM 62.6 °F 46.4 °F 55% 30.09 in 6.2 mi South 15.0 mph - N/A   Unknown
9:00 PM 60.8 °F 46.4 °F 59% 30.09 in 6.2 mi SSE 9.2 mph - N/A   Unknown
9:30 PM 60.8 °F 44.6 °F 55% 30.09 in 6.2 mi South 4.6 mph - N/A   Unknown
10:00 PM 60.8 °F 46.4 °F 59% 30.06 in 6.2 mi South 8.1 mph - N/A   Unknown
10:30 PM 59.0 °F 46.4 °F 63% 30.06 in 6.2 mi South 6.9 mph - N/A   Unknown